STARLINK-4481 (53418 NORAD) Tracking and Keplerian Element Data

This shows tracking and keplerian element data for the satellite.

Feedback or suggestion? Click here.




ElementValue
Catalog53418
NameSTARLINK-4481
Epoch Orbit130
Epoch Day269.91667824
Epoch Year2022
RAAN11.7775
Inclination53.218
Eccentricity0.0002648
Argument of Perigee17.5145
Mean Anonmoly119.5245
Mean Motion15.73242688
Decay Rate-0.00096627
L11 53418U 22097AG 22269.91667824 -.00096627 00000+0 -69055-3 0 9994
L22 53418 53.2180 11.7775 0002648 17.5145 119.5245 15.73242688 1300

Live tracking and technical data element details for STARLINK-4481 (NORAD 53418). STARLINK-4481 can be tracked NOW for your location showing map with azimuth and elevation plus other details from your city location.

Track the satellite on the map from your city or location and see movement details for azimuth, elevation, latitude, longitude, range, height, and movement on the map or in text.







IsCatalogInMostPopularTable: catalog: 53418, numindb: 3
Update: records affected: 1



GetName: 53418 STARLINK-4481

Hit Count: updated at: Thu, 29 Sep 2022 10:48:02 GMT